Date,TemperatureHighF,TemperatureAvgF,TemperatureLowF,DewpointHighF,DewpointAvgF,DewpointLowF,HumidityHigh,HumidityAvg,HumidityLow,PressureMaxIn,PressureMinIn,WindSpeedMaxMPH,WindSpeedAvgMPH,GustSpeedMaxMPH,PrecipitationSumIn
2013-4-1,61.0,51.2,41.0,45.0,39.2,27.0,88,64,44,30.00,29.82,11,2,18,0.00
2013-4-2,54.0,42.7,34.0,28.0,20.8,15.0,68,45,21,30.16,30.00,6,2,14,0.00
2013-4-3,57.0,49.6,38.0,19.0,15.4,11.0,45,26,18,30.34,30.16,6,2,0,0.00
2013-4-4,43.0,35.0,30.0,32.0,23.1,16.0,96,65,38,30.39,30.03,7,0,0,0.00
2013-4-5,64.0,45.1,33.0,40.0,34.4,30.0,97,72,29,30.04,29.91,6,1,14,0.00
2013-4-6,64.0,48.7,32.0,39.0,32.9,29.0,90,58,34,30.25,30.03,4,1,0,0.00
2013-4-7,74.0,55.1,37.0,46.0,38.5,29.0,87,56,35,30.21,30.00,7,1,0,0.00
2013-4-8,81.0,64.4,48.0,52.0,46.7,43.0,83,56,28,30.10,29.94,5,1,13,0.00
2013-4-9,86.0,71.1,55.0,55.0,51.9,49.0,79,53,30,30.11,29.95,9,1,12,0.00
2013-4-10,91.0,76.3,63.0,60.0,54.5,46.0,71,50,22,30.00,29.80,8,2,12,0.00
2013-4-11,86.0,74.1,64.0,61.0,55.1,48.0,74,54,27,29.85,29.64,6,2,14,0.00
2013-4-12,74.0,63.9,59.0,65.0,54.7,37.0,98,77,36,29.77,29.56,7,1,18,0.00
2013-4-13,73.0,61.3,50.0,41.0,34.5,29.0,61,39,20,29.96,29.76,8,3,19,0.00
2013-4-14,79.0,63.5,46.0,45.0,37.4,31.0,71,41,23,30.06,29.93,4,1,0,0.00
2013-4-15,67.0,56.4,52.0,55.0,52.3,43.0,97,87,42,30.22,29.99,1,0,0,0.00
2013-4-16,80.0,65.0,56.0,64.0,57.8,53.0,98,80,55,30.27,30.10,2,0,0,0.00
2013-4-17,81.0,67.4,59.0,63.0,59.4,56.0,92,77,51,30.17,30.05,5,1,0,0.00
2013-4-18,80.0,68.8,58.0,64.0,58.9,54.0,96,73,45,30.10,29.90,6,1,0,0.00
2013-4-19,72.0,65.6,52.0,65.0,58.5,38.0,94,78,65,29.90,29.60,5,2,15,0.00
2013-4-20,62.0,50.9,42.0,38.0,29.5,24.0,64,45,24,30.29,29.83,8,2,20,0.00
2013-4-21,59.0,45.6,32.0,37.0,33.2,30.0,93,64,39,30.51,30.29,2,0,0,0.00
2013-4-22,64.0,48.1,33.0,36.0,32.8,26.0,93,60,24,30.49,30.28,3,1,0,0.00
2013-4-23,74.0,56.0,41.0,50.0,43.6,35.0,83,65,41,30.32,30.05,3,0,0,0.00
2013-4-24,80.0,60.5,44.0,61.0,50.3,43.0,98,73,35,30.09,29.84,6,1,14,0.00
2013-4-25,68.0,52.5,38.0,45.0,32.2,18.0,78,50,19,30.29,30.04,7,2,16,0.00
2013-4-26,72.0,54.3,37.0,41.0,35.5,27.0,79,52,31,30.44,30.28,2,0,0,0.00
2013-4-27,54.0,50.4,48.0,45.0,42.6,41.0,83,75,65,30.35,30.32,1,0,0,0.00
2013-4-29,70.0,60.7,51.0,59.0,56.2,50.0,98,86,67,30.06,29.95,2,0,0,0.00
2013-4-30,73.0,61.5,56.0,59.0,56.5,54.0,98,85,59,30.19,30.01,2,0,0,0.00